{"data":{"norad_id":62967,"epoch":"2026-09-21T17:51:23.764320Z","epoch_age_seconds":57630,"freshness":"FRESH","line1":"1 62967U 25029V   26264.74402505  .00015192  00000+0  46004-3 0  9999","line2":"2 62967  53.1579  37.6018 0001075  91.2466 268.8660 15.34386286 91392","mean_motion":15.34386286,"eccentricity":0.0001075,"inclination_deg":53.1579,"raan_deg":37.6018,"arg_perigee_deg":91.2466,"mean_anomaly_deg":268.866,"bstar":0.00046004,"rev_number":9139,"period_min":93.848596871518,"perigee_km":462.00860670114,"apogee_km":463.47939611644,"semimajor_km":6840.8810014088,"source":"CELESTRAK","updated_at":"2026-09-22T09:00:49.715212Z"}}